User: anonymous   Login
Location: ????????
(55.0097°N, 38.5678°E)
Time: 03:39:10
(UTC+00:00)
Language:

NOSS 3-1 (C) - Orbit

View from above orbital plane
View from above orbital plane
View from above satellite
View from above satellite

Ground track
Ground track

The orbit data is extracted from the following two-line orbital elements,

1 26907U 01040C   24136.88540347 0.00000800  00000-0  48214-3 0    07
2 26907  63.3815  39.2602 0601848   7.6839 352.3161 13.41703388    03
Epoch (UTC): 15 May 2024 21:14:58
Eccentricity: 0.0601848
inclination: 63.3815°
perigee height: 652 km
apogee height: 1553 km
right ascension of ascending node: 39.2602°
argument of perigee: 7.6839°
revolutions per day: 13.41703388
mean anomaly at epoch: 352.3161°
orbit number at epoch: 0

The dashed part of the orbit path shows where the satellite is in the earth's shadow,  

DLR